Regional Weather Roundup
Issued by NWS Glasgow, MT

Home | Current Version | Previous Version | Text Only | Print | Product List | Glossary On
Versions: 1 2 3 4 5 6 7 8 9 10 11 12 13 14 15 16 17 18 19 20 21 22 23 24 25 26 27 28 29 30 31 32 33 34 35 36 37 38 39 40 41 42 43 44 45 46 47 48 49
000
ASUS45 KGGW 301715
RWRGGW
HOURLY REGIONAL WEATHER ROUNDUP FOR NORTHEAST MONTANA
NATIONAL WEATHER SERVICE GLASGOW MONTANA
1100 AM MDT TUE JUN 30 2015

NOTE: "FAIR" INDICATES FEW OR NO CLOUDS BELOW 12,000 FEET WITH NO
SIGNIFICANT WEATHER AND/OR OBSTRUCTIONS TO VISISBILITY.

NORTHEAST MONTANA


CITY           SKY/WX    TMP DP  RH WIND       PRES   REMARKS
GLASGOW        NOT AVBL
PLENTYWOOD       N/A     68  56  65 NE12        N/A
WOLF POINT     MOSUNNY   85  61  44 SE12      29.86F HAZE
JORDAN           N/A     86  57  37 NW16G23   29.87F
WINNETT          N/A     87  55  33 W3G14       N/A
SIDNEY         MOSUNNY   81  63  54 E15       29.88F
GLENDIVE       CLOUDY    77  63  61 SE7       29.90R
MALTA            N/A     86  56  35 W3          N/A

FORT PECK REPORTS


CITY           SKY/WX    TMP DP  RH WIND       PRES   REMARKS
FORT PECK        N/A     80  59  48 E12         N/A
THE PINES        N/A     83  54  36 S3          N/A

SOUTHEAST MONTANA


CITY           SKY/WX    TMP DP  RH WIND       PRES   REMARKS
BILLINGS       PTSUNNY   80  60  50 SW8       30.01S
MILES CITY     PTSUNNY   82  60  47 NW5       29.88F HAZE
BAKER          CLOUDY    73  64  73 SE13      29.92F
LIVINGSTON     MOSUNNY   84  55  36 W21G28    30.09F

CENTRAL MONTANA


CITY           SKY/WX    TMP DP  RH WIND       PRES   REMARKS
HAVRE          SUNNY     87  54  32 NW16G23   29.87F
LEWISTOWN      SUNNY     87  46  24 NW25G31   30.01
GREAT FALLS    MOSUNNY   85  51  31 W18G26    29.99F
CUT BANK       SUNNY     82  43  25 NW20      30.00R
HELENA         SUNNY     83  60  45 VRB7      30.06F
BUTTE          SUNNY     76  52  43 NE5       30.20F
BOZEMAN        MOSUNNY   80  57  45 VRB3      30.13F

WESTERN MONTANA


CITY           SKY/WX    TMP DP  RH WIND       PRES   REMARKS
MISSOULA       SUNNY     78  60  53 CALM      30.07F
KALISPELL      NOT AVBL

NORTH DAKOTA


CITY           SKY/WX    TMP DP  RH WIND       PRES   REMARKS
WILLISTON      CLOUDY    80  53  39 E13       29.91F
DICKINSON      CLOUDY    70  63  78 E9        29.93S
MINOT          CLOUDY    67  63  87 SE3       29.93F FOG
BISMARCK       CLOUDY    68  65  90 E8        29.94F

SOUTHERN SASKATCHEWAN


CITY           SKY/WX    TMP DP  RH WIND       PRES   REMARKS
REGINA         LGT RAIN  63  61  94 VRB2      29.96R VSB 5/8
MOOSE JAW      LGT RAIN  64  61  88 SE5       29.94F VSB 3/4
ESTEVAN        LGT RAIN  64  63  94 VRB2      29.95S SMOKE
SWIFT CURRENT  MOSUNNY   72  55  56 E21G29    29.89F HAZE



USA.gov is the U.S. government's official web portal to all federal, state and local government web resources and services.